Flag for Mauritania Weather past 2 weeks in Nouakchott, Mauritania

Now
81 °F

Passing clouds.


Feels Like: 85 °F
Forecast: 80 / 87 °F
Wind: 14 mph from West

Location: Nouakchott Airport

Current Time: Sep 16, 2014 at 7:52:23 AM

Latest Report: Sep 16, 2014 at 7:30 AM


Visibility: 5 mi

Pressure: 29.86 "Hg

Humidity: 79%

Dew point: 73 °F

Location of NouakchottLocation

Historic Weather in Nouakchott — Graph

°F

Nouakchott temperature yesterday

Maximum temperature yesterday: 90 °F (at 1:00 PM)
Minimum temperature yesterday: 82 °F (at 12:00 AM)
Average temperature yesterday: 85 °F

Past Weeks' High & Low Weather Summary

 TemperatureHumidityPressure
High104 °F (Sep 3, 2:00 PM)94% (Sep 9, 6:30 AM)30.09 "Hg (Sep 9, 6:30 AM)
Low72 °F (Sep 12, 11:00 PM)19% (Sep 3, 2:00 PM)29.71 "Hg (Sep 6, 4:30 PM)
Average85 °F69%29.85 "Hg
* Reported Sep 1 6:00 AM — Sep 16 6:30 AM, Nouakchott, Weather by CustomWeather, © 2014

Note: Actual official high and low records may vary slightly from our data, if they occured in-between our weather recording intervals... More about our weather records

Advertising

Nouakchott weather history for previous 24 hours

 ConditionsComfort  
Time TempWeatherWind HumidityBarometerVisibility
6:30 AM
Sep 16
81 °FPassing clouds.13 mph79%29.86 "Hg5 mi
6:00 AM81 °FPassing clouds.12 mph79%29.86 "Hg5 mi
5:30 AM82 °FPassing clouds.14 mph74%29.86 "Hg5 mi
5:00 AM82 °FPassing clouds.13 mph74%29.86 "Hg5 mi
4:30 AM82 °FPassing clouds.12 mph74%29.86 "Hg5 mi
4:00 AM82 °FPassing clouds.12 mph74%29.86 "Hg5 mi
3:30 AM82 °FPassing clouds.12 mph74%29.86 "Hg5 mi
3:00 AM82 °FPassing clouds.14 mph74%29.86 "Hg5 mi
2:30 AM82 °FPassing clouds.12 mph74%29.89 "Hg5 mi
2:00 AM82 °FPassing clouds.13 mph74%29.89 "Hg5 mi
1:00 AM82 °FPassing clouds.14 mph79%29.89 "Hg5 mi
12:30 AM82 °FPassing clouds.13 mph79%29.89 "Hg5 mi
12:00 AM82 °FPassing clouds.13 mph79%29.92 "Hg5 mi
11:30 PM
Sep 15
82 °FPassing clouds.12 mph79%29.92 "Hg5 mi
11:00 PM82 °FPassing clouds.10 mph79%29.92 "Hg5 mi
10:30 PM82 °FPassing clouds.12 mph79%29.92 "Hg5 mi
10:00 PM82 °FPassing clouds.10 mph79%29.92 "Hg5 mi
9:30 PM82 °FPassing clouds.12 mph79%29.89 "Hg5 mi
9:00 PM82 °FPassing clouds.10 mph79%29.89 "Hg5 mi
8:30 PM82 °FPassing clouds.8 mph79%29.89 "Hg5 mi
8:00 PM82 °FPassing clouds.9 mph79%29.89 "Hg5 mi
7:30 PM82 °FPassing clouds.8 mph79%29.89 "Hg5 mi
7:00 PM84 °FScattered clouds.10 mph74%29.86 "Hg5 mi
6:30 PM84 °FPassing clouds.12 mph74%29.83 "Hg5 mi
6:00 PM84 °FPassing clouds.13 mph74%29.83 "Hg5 mi
5:30 PM86 °FClear.15 mph70%29.83 "Hg5 mi
5:00 PM86 °FClear.16 mph70%29.83 "Hg5 mi
4:30 PM88 °FClear.17 mph66%29.83 "Hg5 mi
4:00 PM88 °FClear.15 mph66%29.86 "Hg5 mi
3:30 PM88 °FClear.17 mph62%29.86 "Hg5 mi
3:00 PM88 °FClear.18 mph66%29.86 "Hg5 mi
2:30 PM90 °FClear.17 mph59%29.86 "Hg4 mi
2:00 PM90 °FClear.18 mph59%29.86 "Hg4 mi
1:30 PM90 °FClear.16 mph59%29.89 "Hg5 mi
1:00 PM90 °FPassing clouds.16 mph59%29.89 "Hg5 mi
12:30 PM88 °FPassing clouds.18 mph66%29.92 "Hg5 mi
12:00 PM88 °FPassing clouds.16 mph66%29.92 "Hg5 mi
11:30 AM88 °FPassing clouds.14 mph62%29.92 "Hg5 mi
11:00 AM88 °FScattered clouds.9 mph66%29.95 "Hg5 mi
10:30 AM86 °FBroken clouds.7 mph70%29.95 "Hg5 mi
10:00 AM86 °FBroken clouds.7 mph70%29.95 "Hg5 mi
9:30 AM84 °FBroken clouds.7 mph74%29.95 "Hg5 mi
9:00 AM84 °FBroken clouds.7 mph74%29.95 "Hg5 mi
8:30 AM84 °FBroken clouds.6 mph74%29.95 "Hg5 mi
8:00 AM82 °FBroken clouds.6 mph79%29.92 "Hg5 mi
7:30 AM82 °FBroken clouds.9 mph79%29.89 "Hg5 mi
7:00 AM82 °FBroken clouds.12 mph79%29.86 "Hg5 mi
Weather by CustomWeather, © 2014

See weather overviewHow to use our weather pages